Location: Seasalter
(51.3333°N, 1.0167°E)
Time: 03:59:12
(UTC+00:00)

Cosmos 2322 Rocket - Pass Details

Date: 26 September 2023
Orbit: 831 x 852 km, 71.0° (Epoch: 29 November)

Event Time Altitude Azimuth Distance (km) Brightness Sun altitude
Rises 01:56:05 0° 331° (NNW) 3,395 5.6 -32.9°
Reaches altitude 10° 01:58:45 10° 341° (NNW) 2,461 4.9 -32.7°
Maximum altitude 02:03:53 34° 46° (NE) 1,353 3.7 -32.2°
Drops below altitude 10° 02:09:00 10° 111° (ESE) 2,462 4.8 -31.6°
Sets 02:11:40 0° 120° (ESE) 3,397 5.5 -31.3°
